Aérodrome :
LOGIN :

S'inscrire | Disclaimer

   EN    FR    IT 

 










Légende :    VFR   VFR Marginal   IFR   IFR Intensif   IFR Très Intensif
Visi : 
Plafond : 
>= 8 km
>= 3000ft
5 à 8 km
1000 à 3000 ft
1500m à 5 km
500 à 1000 ft
800 à 1500m
200 à 500 ft
< 800m
< 200 ft
Symboles :   Orages  Brouillard  Fortes neiges  Fortes précipitations  Vent > 20 kt
SIGMETs :   Divers  Orages  Givrage  Turbulence  Onde Orograph.  Cendres Volcan.







- Altitude de l'aérodrome : 313 ft
- Code IATA : LEH
- Voir les cartes d'approche


LFOH - Le Havre Octeville

DERNIER METAR :
  • 280000Z AUTO 25014KT 9999 // BKN018 OVC024 16/13 Q1012

METARs EXPIRÉS :
  • 272330Z AUTO 24017KT 9999 // BKN017 BKN024 OVC072 16/13 Q1012
  • 272300Z AUTO 24017KT 9999 // BKN017 BKN023 16/13 Q1012
  • 272230Z AUTO 25016KT 9999 // BKN019 16/12 Q1011
  • 272200Z AUTO 23017KT 9999 // BKN019 BKN070 16/12 Q1011
  • 272130Z AUTO 24018KT 9999 // BKN022 BKN027 OVC070 17/13 Q1011

TAF TAF LFOH
Valide du 27 à 12h jusqu'au 28 à 12h UTC


271100Z 2712/2812 26012KT 9999 BKN025
TEMPO 2712/2812 26018G28KT
TEMPO 2800/2808 BKN012
ATIS : +33 2 35 54 64 93
Pas de NOTAMs connus pour ce terrain.



MET'MAP, la Météo Aéronautique d'un coup d'oeil ! - Copyright ORBIFLY Décembre 2007 - Disclaimer

ORBIFLY MET'MAP TEAM :

Programmation & Développement : Alexandra Zaïnal
Conception & Développement : Baudouin d'Aumeries
Co-Programmation & Développement : Marc-Olivier Méhu
Soutien technique & logistique : Manuel Goepfert

Contact : metmap@orbifly.com




SOURCES & CREDITS :

   NOAA